Regional Weather Roundup
Issued by NWS

Home | Current Version | Previous Version | Text Only | Print | Product List | Glossary Off
Versions: 1 2 3 4 5 6 7 8 9 10 11 12 13 14 15 16 17 18 19 20 21 22 23 24 25 26 27 28 29 30 31 32 33 34 35 36 37 38 39 40 41 42 43 44 45 46 47 48 49 50

000
ASUS45 KTFX 200204
RWRMT
MONTANA HOURLY WEATHER ROUNDUP
NATIONAL WEATHER SERVICE GREAT FALLS MT
804 PM MDT TUE AUG 19 2014

NOTE: "FAIR" INDICATES FEW OR NO CLOUDS BELOW 12000 FEET WITH NO
SIGNIFICANT WEATHER AND/OR OBSTRUCTIONS TO VISIBILITY.

* THESE STATIONS ARE NOT UNDER NWS QUALITY CONTROL. THEY DO NOT
   REPORT WEATHER SUCH AS PRECIPITATION OR FOG.

MTZ001>007-043-200300-
WEST OF THE DIVIDE
CITY           SKY/WX    TMP DP  RH WIND       PRES   REMARKS
KALISPELL      MOCLDY    66  57  73 CALM      29.74S
MISSOULA       PTCLDY    75  43  32 N8        29.76S
BUTTE          CLOUDY    68  39  35 S6        29.88S
MULLAN PASS    PTCLDY    61  50  67 S5        29.90F
* LINCOLN      N/A       78  34  20 SW5G17     N/A
* LOOKOUT PASS N/A       65  54  68 N/A        N/A
* POLSON       N/A       65  54  68 N/A        N/A
* RONAN APT    MOCLDY    70  54  57 N/A        N/A
* SEELEY LAKE  N/A       72  44  37 NW8G28     N/A
* THOMP F APT  MOCLDY    53  49  86 NW3G19     N/A
* YAAK HILL    N/A       72  44  37 E1         N/A
$$

MTZ008-052>055-200300-
SOUTHWEST MONTANA
CITY           SKY/WX    TMP DP  RH WIND       PRES   REMARKS
BOZEMAN        CLOUDY    64  55  73 E9        29.85F
DILLON         CLOUDY    61  52  72 CALM      29.87F
W YELLOWSTONE  CLOUDY    57  46  67 N9        30.00R
* THREE FORKS  CLOUDY    72  59  64 N/A        N/A
* BOULDER HILL N/A       67  37  33 SW14G20    N/A
* MONIDA PASS  N/A       54  47  77 S10G15     N/A
* RAYNOLDS PAS N/A       53  39  59 S4G14      N/A
* WHITEHALL    N/A       72  48  43 E2G7       N/A
* WISE RIVER   N/A       66  46  49 NW3G11     N/A
$$

MTZ009>010-012-014-046-048-049-054-200300-
EAST SLOPES AND CENTRAL MONTANA
CITY           SKY/WX    TMP DP  RH WIND       PRES   REMARKS
CUT BANK       CLOUDY    66  46  49 W18G29    29.71F
GREAT FALLS    MOCLDY    77  39  26 W5        29.68S
HELENA         MOCLDY    82  39  22 N7        29.72R
MALMSTROM AFB  PTCLDY    82  37  20 W5        29.69S
* CONRAD       MOCLDY    70  54  57 W14        N/A
* DEARBORN     N/A       85  34  16 S10G17     N/A
* EAST GLACIER N/A       58  51  78 NW8        N/A
* MONARCH      N/A       70  34  27 S16G21     N/A
* PENDROY      N/A       70  44  39 NW19G24    N/A
* ROGERS PASS  N/A       73  36  26 SE2        N/A
* SAINT MARY   N/A       60  49  67 SE3G16     N/A
* SWEET GRASS  N/A       71  52  51 W22G31     N/A
$$

MTZ011-013-016-021-035-040-045-047-050-051-200300-
NORTH CENTRAL MONTANA
CITY           SKY/WX    TMP DP  RH WIND       PRES   REMARKS
HAVRE          CLEAR     82  46  28 NW6       29.62R
LEWISTOWN      CLOUDY    79  45  30 W3        29.74R
* CHESTER      N/A       80  42  26 NW3        N/A
* DENTON       N/A       83  39  21 W4         N/A
* GEYSER       N/A       79  38  23 W4         N/A
* JUDITH GAP   N/A       75  37  25 W26G35     N/A
* LOMA         N/A       81  44  27 VRB11      N/A
$$

MTZ017>020-022>027-061-062-200300-
NORTHEAST MONTANA
CITY           SKY/WX    TMP DP  RH WIND       PRES   REMARKS
GLASGOW        CLEAR     88  46  23 VRB3      29.59S
GLENDIVE       PTCLDY    82  61  49 E3        29.65S HI  83
JORDAN         MOCLDY    79  55  44 CALM      29.63S
SIDNEY         PTCLDY    81  61  51 CALM      29.64R HI  82
WOLF POINT     PTCLDY    84  46  26 SW3       29.59S
* BEAVER HILL  N/A       77  57  50 SE11       N/A
* CIRCLE       N/A       87  55  34 N/A        N/A
* SACO         N/A       83  50  32 SW6        N/A
$$

MTZ028>042-056>058-200300-
SOUTHCENTRAL AND SOUTHEAST MONTANA
CITY           SKY/WX    TMP DP  RH WIND       PRES   REMARKS
BAKER          MOCLDY    75  57  54 SE8       29.71S
BILLINGS       CLOUDY    79  45  30 W12       29.74S
LIVINGSTON     CLOUDY    68  45  44 SW7       29.85F
MILES CITY     CLOUDY    88  43  21 SE3       29.64R
* LAUREL APT   CLOUDY    79  43  28 SW5        N/A
* ROUNDUP APT  CLOUDY    82  37  20 N/A        N/A
* HYSHAM       N/A       80  37  21 W14G29     N/A
* LAME DEER    N/A       81  36  20 N1         N/A
* REED POINT   N/A       75  43  32 W15G20     N/A
* ROSCOE HILL  N/A       69  40  35 S8         N/A
$$

REGIONAL REPORTS...DAKOTAS
CITY           SKY/WX    TMP DP  RH WIND       PRES   REMARKS
WILLISTON      PTCLDY    82  59  46 SE12      29.65R HI  82
DICKINSON      MOCLDY    72  61  68 E10       29.69F
BEACH          N/A       70  59  68 S8        29.70R
CROSBY         CLEAR     72  64  76 E8        29.67S
TIOGA          CLEAR     72  61  68 SE8       29.73S
WATFORD CITY   HAZE      77  61  58 E7        29.65S VSB 3
BISMARCK       PTCLDY    73  64  74 E8        29.72S
GRAND FORKS    CLEAR     73  64  74 SE3       29.74R
FARGO          CLEAR     73  64  74 SE3       29.75R
BUFFALO SD     MOCLDY    79  55  44 SE14      29.67S
RAPID CITY     PTCLDY    72  63  73 E3        29.74R
$$

REGIONAL REPORTS...WYOMING/IDAHO/WASHINGTON
CITY           SKY/WX    TMP DP  RH WIND       PRES   REMARKS
GILLETTE       CLOUDY    77  39  26 N3        29.76F
SHERIDAN       CLOUDY    75  48  39 NW7       29.74R
CODY           CLOUDY    72  45  38 N7        29.84R
YELLOWSTONE LA CLOUDY    55  43  64 CALM      30.08S
SALMON         MOCLDY    66  52  61 N7        29.84R
MULLAN PASS    PTCLDY    61  50  67 S5        29.90S
SAND POINT     CLOUDY    70  54  57 N6        29.70F
SPOKANE        MOCLDY    79  48  34 E5        29.68S

$$



USA.gov is the U.S. government's official web portal to all federal, state and local government web resources and services.